Retour au catalogue

HIMAWARI 3 AKM

ActifMEO
NORAD 22266·ROCKET BODY·🇯🇵 Japan

Lancé Aug 2, 1984 depuis Tanegashima Space Center

Loading…

Prochains Passages (prochaines 24 heures)

TLE

FraisSource: Space-Track

Époque: Sep 13, 2026, 20:49 UTC

1 22266U 84080E   26256.86789582  .00000025  00000-0  00000+0 0  9998
2 22266   9.3589 315.6132 0136125 115.5500 263.7456  0.99750565118379

Suivez HIMAWARI 3 AKM en temps réel avec AllMySat

Download on the App Store